Schneifelwetter: Wetterstation Hallschlag, 537 m . NN
Wetterdaten: Sonntag, 05.12.2010
Datum Zeit Temp. A. Feuchte A. Luftdruck Regen Wind Richtung Richtung Sonnenschein Helligkeit T Regen Taupunkt Windchill
05.12.2010 00:01 -3,0 C 95 % 1008 hPa 0,0 l/m 44,4 km/h (6 Bft) SW45 230 0 min 0 lux 0,00 min -3,7 C -21,3 C
05.12.2010 00:16 -2,8 C 96 % 1007 hPa 0,0 l/m 45,0 km/h (6 Bft) SW45 225 0 min 0 lux 0,00 min -3,3 C -21,1 C
05.12.2010 00:31 -2,8 C 96 % 1007 hPa 0,0 l/m 48,4 km/h (6 Bft) W-SW45 245 0 min 0 lux 0,00 min -3,3 C -21,7 C
05.12.2010 00:46 -2,7 C 95 % 1007 hPa 0,0 l/m 42,6 km/h (6 Bft) W-SW45 240 0 min 0 lux 0,00 min -3,4 C -20,5 C
05.12.2010 01:01 -2,6 C 95 % 1007 hPa 0,0 l/m 41,9 km/h (6 Bft) W-SW45 250 0 min 0 lux 0,00 min -3,3 C -20,2 C
05.12.2010 01:16 -2,6 C 94 % 1007 hPa 0,0 l/m 43,1 km/h (6 Bft) SW45 220 0 min 0 lux 0,00 min -3,4 C -20,4 C
05.12.2010 01:31 -2,6 C 95 % 1007 hPa 0,0 l/m 50,1 km/h (7 Bft) SW45 230 0 min 0 lux 0,00 min -3,3 C -21,7 C
05.12.2010 01:46 -2,5 C 95 % 1007 hPa 0,0 l/m 44,1 km/h (6 Bft) SW45 220 0 min 0 lux 0,00 min -3,2 C -20,5 C
05.12.2010 02:01 -2,5 C 95 % 1006 hPa 0,0 l/m 40,3 km/h (6 Bft) S-SW67.5 210 0 min 0 lux 0,00 min -3,2 C -19,7 C
05.12.2010 02:16 -2,4 C 94 % 1006 hPa 0,0 l/m 44,6 km/h (6 Bft) SW67.5 230 0 min 0 lux 0,00 min -3,2 C -20,4 C
05.12.2010 02:31 -2,4 C 93 % 1006 hPa 0,0 l/m 43,2 km/h (6 Bft) SW45 215 0 min 0 lux 0,00 min -3,4 C -20,2 C
05.12.2010 02:46 -2,6 C 93 % 1006 hPa 0,0 l/m 44,8 km/h (6 Bft) S-SW45 210 0 min 0 lux 0,00 min -3,6 C -20,8 C
05.12.2010 03:01 -2,6 C 94 % 1006 hPa 0,0 l/m 45,4 km/h (6 Bft) SW45 230 0 min 0 lux 0,00 min -3,4 C -20,9 C
05.12.2010 03:16 -2,6 C 93 % 1006 hPa 0,0 l/m 35,5 km/h (5 Bft) W-SW45 240 0 min 0 lux 0,00 min -3,6 C -18,7 C
05.12.2010 03:31 -2,6 C 94 % 1006 hPa 0,0 l/m 43,7 km/h (6 Bft) SW22.5 220 0 min 0 lux 0,00 min -3,4 C -20,6 C
05.12.2010 03:46 -2,6 C 94 % 1006 hPa 0,0 l/m 36,7 km/h (5 Bft) W-SW45 240 0 min 0 lux 0,00 min -3,4 C -19,0 C
05.12.2010 04:01 -2,6 C 95 % 1005 hPa 0,3 l/m 43,4 km/h (6 Bft) SW67.5 225 0 min 0 lux 15,00 min -3,3 C -20,5 C
05.12.2010 04:16 -2,5 C 95 % 1005 hPa 0,0 l/m 36,5 km/h (5 Bft) W-SW45 240 0 min 0 lux 0,00 min -3,2 C -18,8 C
05.12.2010 04:31 -2,6 C 95 % 1005 hPa 0,0 l/m 40,9 km/h (6 Bft) W-SW22.5 250 0 min 0 lux 0,00 min -3,3 C -20,0 C
05.12.2010 04:46 -2,6 C 95 % 1005 hPa 0,0 l/m 37,8 km/h (5 Bft) W-SW45 240 0 min 0 lux 0,00 min -3,3 C -19,3 C
05.12.2010 05:01 -2,6 C 95 % 1005 hPa 0,0 l/m 35,0 km/h (5 Bft) W-SW45 240 0 min 0 lux 0,00 min -3,3 C -18,6 C
05.12.2010 05:16 -2,7 C 95 % 1005 hPa 0,0 l/m 36,8 km/h (5 Bft) W-SW45 240 0 min 0 lux 0,00 min -3,4 C -19,2 C
05.12.2010 05:31 -2,7 C 95 % 1004 hPa 0,3 l/m 30,6 km/h (5 Bft) W-SW45 240 0 min 0 lux 15,00 min -3,4 C -17,4 C
05.12.2010 05:46 -2,8 C 95 % 1004 hPa 0,0 l/m 37,1 km/h (5 Bft) W-SW45 240 0 min 0 lux 0,00 min -3,5 C -19,4 C
05.12.2010 06:01 -2,8 C 95 % 1004 hPa 0,0 l/m 28,8 km/h (4 Bft) W-SW45 245 0 min 0 lux 0,00 min -3,5 C -16,9 C
05.12.2010 06:16 -2,7 C 95 % 1004 hPa 0,0 l/m 29,5 km/h (5 Bft) W-SW22.5 245 0 min 0 lux 0,00 min -3,4 C -17,0 C
05.12.2010 06:31 -2,7 C 94 % 1004 hPa 0,0 l/m 37,8 km/h (5 Bft) SW45 230 0 min 0 lux 0,00 min -3,5 C -19,4 C
05.12.2010 06:46 -2,6 C 92 % 1004 hPa 0,0 l/m 31,7 km/h (5 Bft) W-SW45 240 0 min 0 lux 0,00 min -3,7 C -17,6 C
05.12.2010 07:01 -2,7 C 92 % 1003 hPa 0,0 l/m 33,7 km/h (5 Bft) SW45 230 0 min 0 lux 0,00 min -3,8 C -18,3 C
05.12.2010 07:16 -2,8 C 92 % 1003 hPa 0,0 l/m 35,5 km/h (5 Bft) SW22.5 230 0 min 0 lux 0,00 min -3,9 C -19,0 C
05.12.2010 07:31 -2,9 C 92 % 1003 hPa 0,0 l/m 33,1 km/h (5 Bft) SW22.5 225 0 min 0 lux 0,00 min -4,0 C -18,5 C
05.12.2010 07:46 -2,9 C 92 % 1003 hPa 0,0 l/m 32,3 km/h (5 Bft) SW45 230 0 min 0 lux 0,00 min -4,0 C -18,2 C
05.12.2010 08:01 -2,9 C 92 % 1003 hPa 0,0 l/m 30,8 km/h (5 Bft) SW22.5 230 0 min 0 lux 0,00 min -4,0 C -17,7 C
05.12.2010 08:16 -3,0 C 91 % 1003 hPa 0,0 l/m 33,1 km/h (5 Bft) SW45 225 0 min 206 lux 0,00 min -4,3 C -18,6 C
05.12.2010 08:31 -2,9 C 91 % 1002 hPa 0,0 l/m 31,8 km/h (5 Bft) SW45 225 0 min 549 lux 0,00 min -4,2 C -18,1 C
05.12.2010 08:46 -3,0 C 91 % 1002 hPa 0,0 l/m 33,8 km/h (5 Bft) W-SW67.5 250 0 min 987 lux 0,00 min -4,3 C -18,8 C
05.12.2010 09:01 -3,1 C 92 % 1002 hPa 0,0 l/m 31,3 km/h (5 Bft) SW67.5 230 0 min 1,70 klux 0,00 min -4,2 C -18,2 C
05.12.2010 09:16 -3,1 C 93 % 1002 hPa 0,0 l/m 41,9 km/h (6 Bft) SW45 225 0 min 2,99 klux 0,00 min -4,1 C -20,9 C
05.12.2010 09:31 -3,2 C 93 % 1002 hPa 0,0 l/m 40,3 km/h (6 Bft) SW45 220 0 min 3,56 klux 0,00 min -4,2 C -20,7 C
05.12.2010 09:46 -3,1 C 94 % 1002 hPa 0,0 l/m 32,4 km/h (5 Bft) W-SW22.5 240 0 min 5,24 klux 0,00 min -3,9 C -18,5 C
05.12.2010 10:02 -3,0 C 94 % 1002 hPa 0,0 l/m 37,3 km/h (5 Bft) SW22.5 230 0 min 6,67 klux 0,00 min -3,8 C -19,7 C
05.12.2010 10:16 -2,8 C 94 % 1002 hPa 0,3 l/m 33,5 km/h (5 Bft) SW45 230 0 min 6,98 klux 14,00 min -3,6 C -18,4 C
05.12.2010 10:31 -2,8 C 93 % 1002 hPa 0,0 l/m 30,5 km/h (5 Bft) SW45 235 0 min 7,36 klux 0,00 min -3,8 C -17,5 C
05.12.2010 10:46 -2,8 C 93 % 1002 hPa 0,0 l/m 27,1 km/h (4 Bft) SW67.5 230 0 min 9,1 klux 0,00 min -3,8 C -16,3 C
05.12.2010 11:01 -2,7 C 93 % 1002 hPa 0,0 l/m 32,9 km/h (5 Bft) SW22.5 230 0 min 9,3 klux 0,00 min -3,7 C -18,1 C
05.12.2010 11:17 -2,5 C 93 % 1002 hPa 0,0 l/m 34,9 km/h (5 Bft) SW22.5 220 0 min 10,0 klux 0,00 min -3,5 C -18,4 C
05.12.2010 11:32 -2,6 C 94 % 1001 hPa 0,0 l/m 30,8 km/h (5 Bft) SW45 225 0 min 9,6 klux 0,00 min -3,4 C -17,3 C
05.12.2010 11:47 -2,4 C 94 % 1001 hPa 0,3 l/m 32,9 km/h (5 Bft) SW22.5 215 0 min 10,4 klux 15,00 min -3,2 C -17,7 C
05.12.2010 12:01 -2,5 C 94 % 1001 hPa 0,0 l/m 38,9 km/h (6 Bft) SW22.5 225 0 min 10,0 klux 0,00 min -3,3 C -19,4 C
05.12.2010 12:16 -2,5 C 93 % 1001 hPa 0,0 l/m 35,2 km/h (5 Bft) SW45 230 0 min 12,3 klux 0,00 min -3,5 C -18,5 C
05.12.2010 12:31 -2,4 C 94 % 1001 hPa 0,3 l/m 29,4 km/h (5 Bft) SW45 235 0 min 11,7 klux 15,00 min -3,2 C -16,6 C
05.12.2010 12:46 -2,4 C 93 % 1001 hPa 0,0 l/m 36,6 km/h (5 Bft) SW22.5 225 0 min 11,8 klux 0,00 min -3,4 C -18,7 C
05.12.2010 13:02 -2,6 C 94 % 1001 hPa 0,3 l/m 32,5 km/h (5 Bft) SW22.5 230 0 min 9,00 klux 16,00 min -3,4 C -17,8 C
05.12.2010 13:17 -2,6 C 94 % 1001 hPa 0,0 l/m 28,6 km/h (4 Bft) SW45 230 0 min 7,97 klux 0,00 min -3,4 C -16,6 C
05.12.2010 13:31 -2,4 C 95 % 1001 hPa 0,6 l/m 28,4 km/h (4 Bft) W-SW22.5 245 0 min 8,79 klux 14,00 min -3,1 C -16,2 C
05.12.2010 13:46 -2,4 C 95 % 1001 hPa 0,3 l/m 27,3 km/h (4 Bft) W-SW22.5 245 0 min 7,09 klux 15,00 min -3,1 C -15,8 C
05.12.2010 14:01 -2,3 C 95 % 1001 hPa 0,3 l/m 27,4 km/h (4 Bft) W-SW22.5 250 0 min 8,28 klux 15,00 min -3,0 C -15,7 C
05.12.2010 14:16 -2,1 C 95 % 1000 hPa 0,6 l/m 24,3 km/h (4 Bft) W-SW45 255 0 min 7,50 klux 15,00 min -2,8 C -14,3 C
05.12.2010 14:32 -2,2 C 96 % 1000 hPa 0,3 l/m 27,0 km/h (4 Bft) W-SW45 255 0 min 5,84 klux 16,00 min -2,7 C -15,5 C
05.12.2010 14:46 -2,3 C 95 % 1001 hPa 0,3 l/m 24,6 km/h (4 Bft) W-SW45 250 0 min 4,09 klux 14,00 min -3,0 C -14,7 C
05.12.2010 15:01 -2,3 C 95 % 1001 hPa 0,3 l/m 20,6 km/h (4 Bft) W-SW22.5 245 0 min 3,92 klux 15,00 min -3,0 C -12,9 C
05.12.2010 15:16 -2,4 C 95 % 1000 hPa 0,6 l/m 25,6 km/h (4 Bft) W-SW45 245 0 min 3,76 klux 15,00 min -3,1 C -15,2 C
05.12.2010 15:31 -2,5 C 96 % 1000 hPa 0,3 l/m 29,1 km/h (5 Bft) W-SW22.5 240 0 min 2,33 klux 15,00 min -3,0 C -16,6 C
05.12.2010 15:47 -2,6 C 96 % 1001 hPa 0,3 l/m 28,0 km/h (4 Bft) W-SW45 240 0 min 2,00 klux 16,00 min -3,1 C -16,4 C
05.12.2010 16:02 -2,6 C 96 % 1001 hPa 0,6 l/m 23,7 km/h (4 Bft) W-SW22.5 255 0 min 1,32 klux 15,00 min -3,1 C -14,7 C
05.12.2010 16:16 -2,6 C 96 % 1001 hPa 0,3 l/m 20,1 km/h (4 Bft) W-SW22.5 240 0 min 1,02 klux 14,00 min -3,1 C -13,0 C
05.12.2010 16:31 -2,6 C 96 % 1001 hPa 0,3 l/m 17,8 km/h (3 Bft) SW22.5 230 0 min 502 lux 15,00 min -3,1 C -11,8 C
05.12.2010 16:46 -2,7 C 97 % 1001 hPa 0,3 l/m 19,1 km/h (3 Bft) W-SW22.5 255 0 min 260 lux 15,00 min -3,1 C -12,7 C
05.12.2010 17:01 -2,7 C 97 % 1001 hPa 0,0 l/m 15,7 km/h (3 Bft) SW45 235 0 min 78 lux 0,00 min -3,1 C -10,7 C
05.12.2010 17:16 -2,8 C 97 % 1001 hPa 0,0 l/m 16,3 km/h (3 Bft) W-SW22.5 250 0 min 18 lux 0,00 min -3,2 C -11,2 C
05.12.2010 17:32 -2,8 C 97 % 1000 hPa 0,0 l/m 15,3 km/h (3 Bft) W-SW45 250 0 min 6 lux 0,00 min -3,2 C -10,6 C
05.12.2010 17:47 -2,8 C 97 % 1001 hPa 0,0 l/m 12,1 km/h (2 Bft) W-SW22.5 250 0 min 0 lux 0,00 min -3,2 C -8,3 C
05.12.2010 18:01 -2,9 C 97 % 1000 hPa 0,0 l/m 12,3 km/h (3 Bft) W-SW22.5 250 0 min 0 lux 0,00 min -3,3 C -8,6 C
05.12.2010 18:16 -2,9 C 97 % 1000 hPa 0,0 l/m 11,6 km/h (2 Bft) W-SW22.5 245 0 min 0 lux 0,00 min -3,3 C -8,0 C
05.12.2010 18:31 -2,9 C 97 % 1000 hPa 0,0 l/m 8,9 km/h (2 Bft) S-SW22.5 210 0 min 0 lux 0,00 min -3,3 C -5,6 C
05.12.2010 18:46 -2,9 C 97 % 1000 hPa 0,0 l/m 7,8 km/h (2 Bft) SW45 220 0 min 0 lux 0,00 min -3,3 C -4,5 C
05.12.2010 19:02 -3,0 C 97 % 1000 hPa 0,0 l/m 9,3 km/h (2 Bft) W-SW22.5 245 0 min 0 lux 0,00 min -3,4 C -6,1 C
05.12.2010 19:17 -2,9 C 97 % 1001 hPa 0,0 l/m 7,9 km/h (2 Bft) SW22.5 215 0 min 0 lux 0,00 min -3,3 C -4,6 C
05.12.2010 19:32 -3,0 C 97 % 1000 hPa 0,0 l/m 6,4 km/h (2 Bft) S-SW 210 0 min 0 lux 0,00 min -3,4 C -3,0 C
05.12.2010 19:46 -3,0 C 97 % 1000 hPa 0,0 l/m 10,1 km/h (2 Bft) SW22.5 220 0 min 0 lux 0,00 min -3,4 C -6,9 C
05.12.2010 20:01 -3,0 C 97 % 1000 hPa 0,0 l/m 7,9 km/h (2 Bft) SW22.5 215 0 min 0 lux 0,00 min -3,4 C -4,7 C
05.12.2010 20:16 -3,0 C 97 % 1000 hPa 0,0 l/m 9,8 km/h (2 Bft) W-SW22.5 250 0 min 0 lux 0,00 min -3,4 C -6,6 C
05.12.2010 20:31 -3,0 C 97 % 1001 hPa 0,0 l/m 6,9 km/h (2 Bft) W-SW 245 0 min 0 lux 0,00 min -3,4 C -3,6 C
05.12.2010 20:47 -3,0 C 97 % 1001 hPa 0,0 l/m 5,1 km/h (1 Bft) SW22.5 225 0 min 0 lux 0,00 min -3,4 C -3,0 C
05.12.2010 21:02 -2,9 C 97 % 1001 hPa 0,0 l/m 0,9 km/h (0 Bft) S-SW 210 0 min 0 lux 0,00 min -3,3 C -2,9 C
05.12.2010 21:16 -2,9 C 97 % 1001 hPa 0,0 l/m 3,1 km/h (1 Bft) S-SW 210 0 min 0 lux 0,00 min -3,3 C -2,9 C
05.12.2010 21:31 -2,9 C 97 % 1001 hPa 0,0 l/m 3,9 km/h (1 Bft) SW 220 0 min 0 lux 0,00 min -3,3 C -2,9 C
05.12.2010 21:46 -2,9 C 97 % 1001 hPa 0,0 l/m 6,4 km/h (2 Bft) SW 225 0 min 0 lux 0,00 min -3,3 C -2,9 C
05.12.2010 22:01 -2,9 C 97 % 1001 hPa 0,0 l/m 0,5 km/h (0 Bft) SW 225 0 min 0 lux 0,00 min -3,3 C -2,9 C
05.12.2010 22:16 -2,8 C 97 % 1001 hPa 0,0 l/m 0,0 km/h (0 Bft) SW 225 0 min 0 lux 0,00 min -3,2 C -2,8 C
05.12.2010 22:32 -2,8 C 97 % 1001 hPa 0,0 l/m 6,0 km/h (2 Bft) SW 225 0 min 0 lux 0,00 min -3,2 C -2,8 C
05.12.2010 22:47 -2,8 C 97 % 1001 hPa 0,0 l/m 0,7 km/h (0 Bft) SW 225 0 min 0 lux 0,00 min -3,2 C -2,8 C
05.12.2010 23:01 -2,8 C 97 % 1001 hPa 0,0 l/m 6,7 km/h (2 Bft) W-SW 240 0 min 0 lux 0,00 min -3,2 C -3,1 C
05.12.2010 23:16 -2,8 C 97 % 1001 hPa 0,0 l/m 3,9 km/h (1 Bft) W-SW 240 0 min 0 lux 0,00 min -3,2 C -2,8 C
05.12.2010 23:31 -2,8 C 97 % 1001 hPa 0,0 l/m 1,5 km/h (1 Bft) W-SW 240 0 min 0 lux 0,00 min -3,2 C -2,8 C
05.12.2010 23:46 -2,8 C 98 % 1001 hPa 0,0 l/m 0,0 km/h (0 Bft) W-SW 240 0 min 0 lux 0,00 min -3,1 C -2,8 C
_ Min-Zeit 09:31 08:16 14:16 - 22:16 - - - - - 08:16 00:31
Minimum _ -3,2 C 91 % 1000 hPa - 0,0 km/h (0 Bft) - - - - - -4,3 C -21,7 C
_ Max-Zeit 14:16 23:46 00:01 13:31 01:31 - - 00:01 12:16 13:02 14:32 22:16
Maximum _ -2,1 C 98 % 1008 hPa 0,6 l/m 50,1 km/h
SW (7 Bft)
- - 0 min 12,3 klux 16,00 min -2,7 C -2,8 C
Durchschnitt _ -2,7 C 95 % 1003 hPa #7,2 l/m 26,4 km/h (4 Bft) SW - #0 min. 2,13 klux #4:59 h -3,4 C -14,3 C